This is the latest recevied weather packets stored in our database for station/object E24CR-1. If no packets are shown the sender has not sent any weather packets the latest 10 day(s).
| Time | Temp. | Humidity | Pressure | Rain* | Wind** | Luminosity | Snow |
|---|---|---|---|---|---|---|---|
| 1778141359 | 37.22° C | 32% | 947 hPa | - | - | 0 W/m² | - |
| 1778140733 | 39.44° C | 30% | 947 hPa | - | - | 0 W/m² | - |
| 1778140107 | 38.89° C | 31% | 947 hPa | - | - | 0 W/m² | - |
| 1778139482 | 37.78° C | 32% | 947 hPa | - | - | 0 W/m² | - |
| 1778138857 | 37.78° C | 33% | 947 hPa | - | - | 0 W/m² | - |
| 1778138230 | 38.89° C | 30% | 948 hPa | - | - | 0 W/m² | - |
| 1778137605 | 39.44° C | 30% | 948 hPa | - | - | 0 W/m² | - |
| 1778136980 | 38.89° C | 30% | 948 hPa | - | - | 0 W/m² | - |
| 1778136355 | 40° C | 30% | 948 hPa | - | - | 0 W/m² | - |
| 1778135729 | 41.11° C | 31% | 949 hPa | - | - | 0 W/m² | - |
| 1778135104 | 38.89° C | 27% | 949 hPa | - | - | 0 W/m² | - |
| 1778134479 | 40.56° C | 27% | 949 hPa | - | - | 0 W/m² | - |
| 1778133851 | 40.56° C | 29% | 949 hPa | - | - | 0 W/m² | - |
| 1778133225 | 38.33° C | 31% | 950 hPa | - | - | 0 W/m² | - |
| 1778132597 | 39.44° C | 30% | 950 hPa | - | - | 0 W/m² | - |
| 1778131969 | 40.56° C | 31% | 950 hPa | - | - | 0 W/m² | - |
| 1778131342 | 41.67° C | 31% | 950 hPa | - | - | 0 W/m² | - |
| 1778130716 | 38.89° C | 37% | 951 hPa | - | - | 0 W/m² | - |
| 1778130089 | 38.33° C | 38% | 951 hPa | - | - | 0 W/m² | - |
| 1778129463 | 38.33° C | 40% | 951 hPa | - | - | 0 W/m² | - |
| 1778128836 | 37.22° C | 41% | 951 hPa | - | - | 0 W/m² | - |
| 1778128211 | 36.67° C | 43% | 951 hPa | - | - | 0 W/m² | - |
| 1778127585 | 36.11° C | 44% | 951 hPa | - | - | 0 W/m² | - |
| 1778126960 | 37.78° C | 44% | 951 hPa | - | - | 0 W/m² | - |
| 1778126334 | 36.11° C | 46% | 951 hPa | - | - | 0 W/m² | - |
* Rain since midnight (hover to see other rain measurements)
** Current wind speed in m/s (hover to see current wind gust speed)